Flag for U.S.A. Weather past 2 weeks in Newark, New Jersey, U.S.A.

Now
91 °F

Passing clouds.


Feels Like: 89 °F
Forecast: 73 / 90 °F
Wind: 6 mph from Northwest

Location: Newark International Airport

Current Time: Jul 31, 2015 at 6:34:37 PM

Latest Report: Jul 31, 2015 at 4:51 PM


Visibility: 10 mi

Pressure: 29.81 "Hg

Humidity: 28%

Dew point: 53 °F

Location of NewarkLocation

Historic Weather in Newark — Graph

°F

Newark temperature yesterday

Maximum temperature yesterday: 90 °F (at 1:51 PM)
Minimum temperature yesterday: 76 °F (at 11:51 PM)
Average temperature yesterday: 81 °F

Past Weeks' High & Low Weather Summary

 TemperatureHumidityPressure
High98 °F (Jul 19, 3:51 PM)94% (Jul 31, 1:51 AM)30.12 "Hg (Jul 31, 1:51 AM)
Low63 °F (Jul 17, 5:51 AM)22% (Jul 24, 3:51 PM)29.57 "Hg (Jul 21, 5:51 PM)
Average81 °F56%29.89 "Hg
* Reported Jul 16 4:51 PM — Jul 31 4:51 PM, Newark, Weather by CustomWeather, © 2015

Note: Actual official high and low records may vary slightly from our data, if they occured in-between our weather recording intervals... More about our weather records

Advertising

Newark weather history for previous 24 hours

 ConditionsComfort  
Time TempWeatherWind HumidityBarometerVisibility
4:51 PM
Fri, Jul 31
91 °FPassing clouds.6 mph28%29.81 "Hg10 mi
3:51 PM90 °FPassing clouds.9 mph32%29.81 "Hg10 mi
2:51 PM92 °FPassing clouds.10 mph29%29.83 "Hg10 mi
1:51 PM91 °FScattered clouds.12 mph30%29.84 "Hg10 mi
12:51 PM90 °FPassing clouds.8 mph29%29.85 "Hg10 mi
11:51 AM89 °FPassing clouds.13 mph34%29.87 "Hg10 mi
10:51 AM87 °FPassing clouds.8 mph37%29.87 "Hg10 mi
9:51 AM83 °FSunny.5 mph46%29.88 "Hg10 mi
8:51 AM80 °FPassing clouds.5 mph52%29.88 "Hg10 mi
7:51 AM77 °FScattered clouds.5 mph58%29.88 "Hg10 mi
6:51 AM74 °FPassing clouds.6 mph67%29.86 "Hg10 mi
5:51 AM73 °FPassing clouds.7 mph66%29.85 "Hg10 mi
4:51 AM75 °FPassing clouds.7 mph66%29.85 "Hg10 mi
3:51 AM76 °FPassing clouds.8 mph69%29.83 "Hg10 mi
2:51 AM76 °FPassing clouds.5 mph85%29.83 "Hg10 mi
1:51 AM75 °FPassing clouds.8 mph94%29.83 "Hg10 mi
12:51 AM76 °FPartly cloudy.6 mph91%29.84 "Hg10 mi
11:51 PM
Thu, Jul 30
76 °FPartly cloudy.6 mph91%29.84 "Hg10 mi
10:51 PM77 °FPartly cloudy.7 mph85%29.84 "Hg10 mi
9:51 PM78 °FPartly cloudy.10 mph82%29.84 "Hg10 mi
8:51 PM78 °FBroken clouds.8 mph82%29.82 "Hg10 mi
7:51 PM79 °FPartly sunny.8 mph82%29.81 "Hg10 mi
6:51 PM80 °FCloudy.9 mph79%29.80 "Hg10 mi
Weather by CustomWeather, © 2015

See weather overviewHow to use our weather pages